Location: Newark
(3.1475°N, 101.6933°E)
Time: 19:55:03
(UTC+00:00)

ISS - Visible Passes

Search period start: 15 September 2019 00:00
Search period end: 25 September 2019 00:00
Orbit: 411 x 421 km, 51.6° (Epoch: 15 September)

Date Brightness Start Highest point End Pass type
(mag) Time Alt. Az. Time Alt. Az. Time Alt. Az.
15 Sep -2.5 12:16:17 10° SW 12:19:26 41° NW 12:22:13 12° NNE visible
16 Sep -3.8 11:27:44 10° SSW 11:31:02 73° SE 11:34:19 10° NE visible
17 Sep -2.0 22:13:54 10° NNW 22:16:58 34° NE 22:20:03 10° ESE visible
18 Sep -0.9 11:28:14 10° WSW 11:30:44 20° NW 11:33:14 10° N visible
18 Sep -0.8 21:26:41 11° NNE 21:28:32 15° NE 21:30:34 10° E visible
19 Sep -3.2 22:14:48 20° WNW 22:16:38 38° SW 22:19:47 10° SSE visible
20 Sep -2.0 21:29:46 28° SE 21:29:46 28° SE 21:31:32 10° SE visible
